(84193) = 2002 RO114

Discovered at Socorro on 2002-09-05 by LINEAR.

Orbit

Orbit type: Main Belt

Note: WebGL enabled browser required.

epoch2024-03-31.0
epoch JD2460400.5
perihelion date2023-05-06.95889
perihelion JD2460071.45889
argument of perihelion (°)283.74602
ascending node (°)128.27367
inclination (°)3.91627
eccentricity0.1045373
perihelion distance (AU)2.0172840
Tisserand w.r.t. Jupiter3.6
ΔV w.r.t. Earth (km/sec)8.9
semimajor axis (AU)2.2527840
mean anomaly (°)95.91238
mean daily motion (°/day)0.29149060
aphelion distance (AU)2.488
period (years)3.38
P-vector [x]0.61361007
P-vector [y]0.74828018
P-vector [z]0.25211000
Q-vector [x]-0.78778661
Q-vector [y]0.55846977
Q-vector [z]0.25981489
absolute magnitude16.78
phase slope0.15
uncertainty0
referenceMPEC 2024-E73
observations used828
oppositions17
arc length (days)10452
first opposition used1995
last opposition used2024
residual rms (arc-secs)0.71
perturbers coarse indicatorM-v
perturbers precise indicator003Ek
first observation date used1995-07-24.0
last observation date used2024-03-05.0
computer nameMPCLINUX
JD of orbit computation2456937.206276
perihelion JD uncertainty (days)7.7929E-05
argument of perihelion uncertainty (°)6.2068E-05
ascending node uncertainty (°)5.8153E-05
inclination uncertainty (°)3.3922E-06
eccentricity uncertainty 3.2665E-08
perihelion distance uncertainty (AU)7.2749E-08
Minimum Orbit Intersection Distances (in AU)
for orbit epoch: 2460400.5, reference: E2024-GB3
Mercury1.70117
Venus1.29569
Earth1.03265
Mars0.49895
Jupiter2.79704
Saturn6.95438
Uranus16.0804
Neptune27.7847

Observations

846 total observations over interval: 1995 07 24.37955 – 2024 03 05.221248
These data are available for download (format description).

Date (UT) J2000 RA J2000 Dec Magn Location Ref
1995 07 24.37955 22 44 00.56 -09 45 19.6   691 – Steward Observatory, Kitt Peak-Spacewatch MPS 69926
1995 07 24.40078 22 44 00.16 -09 45 25.0 20.4 V 691 – Steward Observatory, Kitt Peak-Spacewatch MPS 69926
1995 07 24.42201 22 43 59.77 -09 45 30.3   691 – Steward Observatory, Kitt Peak-Spacewatch MPS 69926
1999 12 08.34125 06 27 59.25 +18 25 52.5 19.8   704 – Lincoln Laboratory ETS, New Mexico MPS 69926
1999 12 08.35370 06 27 58.56 +18 25 54.3 19.4   704 – Lincoln Laboratory ETS, New Mexico MPS 69926
1999 12 08.36615 06 27 57.82 +18 25 55.0 19.6   704 – Lincoln Laboratory ETS, New Mexico MPS 69926
2000 01 05.22301 05 58 09.93 +19 33 03.6 19.2   704 – Lincoln Laboratory ETS, New Mexico MPS 69926
2000 01 05.23763 05 58 09.00 +19 33 06.3 19.6   704 – Lincoln Laboratory ETS, New Mexico MPS 69926
2000 01 05.25227 05 58 08.06 +19 33 08.9 19.3   704 – Lincoln Laboratory ETS, New Mexico MPS 69926
2002 09 05.34269 01 27 48.65 +03 11 41.4 18.9   704 – Lincoln Laboratory ETS, New Mexico MPS 61744
2002 09 05.35826 01 27 48.47 +03 11 37.5 19.6   704 – Lincoln Laboratory ETS, New Mexico MPS 61744
2002 09 05.37343 01 27 48.35 +03 11 33.5 19.9   704 – Lincoln Laboratory ETS, New Mexico MPS 61744
2002 09 05.38793 01 27 48.14 +03 11 28.5 19.4   704 – Lincoln Laboratory ETS, New Mexico MPS 61744
2002 09 08.60809 01 27 04.80 +02 55 41.8 20.9   608 – Haleakala-AMOS MPS 61744
2002 09 08.61862 01 27 04.64 +02 55 38.9 20.3   608 – Haleakala-AMOS MPS 61744
2002 09 08.62926 01 27 04.42 +02 55 36.0 20.3   608 – Haleakala-AMOS MPS 61744
2002 09 15.57141 01 24 24.81 +02 15 51.4 20.0   608 – Haleakala-AMOS MPS 61744
2002 09 15.58158 01 24 24.48 +02 15 47.5 20.2   608 – Haleakala-AMOS MPS 61744
2002 09 15.59230 01 24 24.11 +02 15 43.7 19.9   608 – Haleakala-AMOS MPS 61745
2002 10 02.32001 01 12 43.67 +00 19 23.7 18.5   704 – Lincoln Laboratory ETS, New Mexico MPS 63549
2002 10 02.33486 01 12 42.91 +00 19 17.8 18.9   704 – Lincoln Laboratory ETS, New Mexico MPS 63549
2002 10 02.35080 01 12 42.04 +00 19 10.0 19.0   704 – Lincoln Laboratory ETS, New Mexico MPS 63549
2002 10 02.36596 01 12 41.28 +00 19 04.8 19.0   704 – Lincoln Laboratory ETS, New Mexico MPS 63549
2002 10 03.25240 01 11 55.32 +00 12 39.4 18.7   704 – Lincoln Laboratory ETS, New Mexico MPS 63549
2002 10 03.26747 01 11 54.54 +00 12 31.5 18.9   704 – Lincoln Laboratory ETS, New Mexico MPS 63549
2002 10 03.28236 01 11 53.65 +00 12 25.9 18.7   704 – Lincoln Laboratory ETS, New Mexico MPS 63549
2002 10 03.29733 01 11 52.89 +00 12 18.6 19.2   704 – Lincoln Laboratory ETS, New Mexico MPS 63549
2002 10 03.31228 01 11 51.96 +00 12 13.0 19.2   704 – Lincoln Laboratory ETS, New Mexico MPS 63549
2002 10 08.23428 01 07 26.73 -00 22 52.0 18.4 R 699 – Lowell Observatory-LONEOS MPS 63549
2002 10 08.25187 01 07 25.75 -00 23 00.4   699 – Lowell Observatory-LONEOS MPS 63549
2002 10 08.26944 01 07 24.76 -00 23 07.8   699 – Lowell Observatory-LONEOS MPS 63549
2002 10 08.28701 01 07 23.74 -00 23 14.9   699 – Lowell Observatory-LONEOS MPS 63549
2002 10 10.350760 01 05 29.829 -00 37 24.98 18.82 V 645 – Apache Point-Sloan Digital Sky Survey MPS 80116
2002 10 10.354232 01 05 29.630 -00 37 26.32 19.50   645 – Apache Point-Sloan Digital Sky Survey MPS 80116
2002 10 11.24463 01 04 40.73 -00 43 24.0 18.1   704 – Lincoln Laboratory ETS, New Mexico MPS 63549
2002 10 11.25964 01 04 39.90 -00 43 30.0 18.7   704 – Lincoln Laboratory ETS, New Mexico MPS 63549
2002 10 11.27458 01 04 38.99 -00 43 36.3 18.6   704 – Lincoln Laboratory ETS, New Mexico MPS 63549
2002 10 11.28963 01 04 38.17 -00 43 42.8 18.5   704 – Lincoln Laboratory ETS, New Mexico MPS 63549
2002 10 11.30463 01 04 37.29 -00 43 48.2 18.5   704 – Lincoln Laboratory ETS, New Mexico MPS 63549
2002 10 11.362640 01 04 33.933 -00 44 11.58 18.96 V 645 – Apache Point-Sloan Digital Sky Survey MPS 80116
2002 10 11.366112 01 04 33.736 -00 44 12.89 19.68   645 – Apache Point-Sloan Digital Sky Survey MPS 80116
2002 10 28.12615 00 50 26.05 -02 11 36.6 19.4   644 – Palomar Mountain/NEAT MPS 65936
2002 10 28.14715 00 50 25.12 -02 11 41.0 19.3   644 – Palomar Mountain/NEAT MPS 65936
2002 10 28.17757 00 50 23.76 -02 11 47.4 18.9   644 – Palomar Mountain/NEAT MPS 65936
2002 10 30.28119 00 48 57.73 -02 18 30.1 19.2   704 – Lincoln Laboratory ETS, New Mexico MPS 65936
2002 10 30.29857 00 48 56.99 -02 18 33.7 19.2   704 – Lincoln Laboratory ETS, New Mexico MPS 65936
2002 10 30.31618 00 48 56.21 -02 18 37.5 18.9   704 – Lincoln Laboratory ETS, New Mexico MPS 65936
2002 11 06.09345 00 45 09.02 -02 32 31.0 20.0   644 – Palomar Mountain/NEAT MPS 65936
2002 11 06.11454 00 45 08.35 -02 32 32.1 20.1   644 – Palomar Mountain/NEAT MPS 65936
2002 11 06.13554 00 45 07.76 -02 32 34.4 19.8   644 – Palomar Mountain/NEAT MPS 65936
2004 03 16.34821 12 45 03.58 +01 05 34.1 19.5   704 – Lincoln Laboratory ETS, New Mexico MPS 101171
2004 03 16.37132 12 45 02.25 +01 05 43.0 20.3   704 – Lincoln Laboratory ETS, New Mexico MPS 101171
2004 03 16.38273 12 45 01.68 +01 05 47.7 19.7   704 – Lincoln Laboratory ETS, New Mexico MPS 101171
2004 03 19.33889 12 42 24.05 +01 27 43.3 19.7   704 – Lincoln Laboratory ETS, New Mexico MPS 102162
2004 03 19.34958 12 42 23.40 +01 27 48.3 19.9   704 – Lincoln Laboratory ETS, New Mexico MPS 102162
2004 03 19.36081 12 42 22.79 +01 27 53.6 19.9   704 – Lincoln Laboratory ETS, New Mexico MPS 102162
2004 03 19.37178 12 42 22.17 +01 27 58.4 20.1   704 – Lincoln Laboratory ETS, New Mexico MPS 102162
2004 03 19.38263 12 42 21.56 +01 28 03.0 19.7   704 – Lincoln Laboratory ETS, New Mexico MPS 102162
2004 03 22.34536 12 39 37.53 +01 50 02.9 19.3   704 – Lincoln Laboratory ETS, New Mexico MPS 102162
2004 03 22.35619 12 39 36.87 +01 50 08.4 19.9   704 – Lincoln Laboratory ETS, New Mexico MPS 102162
2004 03 22.36694 12 39 36.21 +01 50 12.5 20.0   704 – Lincoln Laboratory ETS, New Mexico MPS 102162
2004 03 22.37800 12 39 35.61 +01 50 17.3 19.8   704 – Lincoln Laboratory ETS, New Mexico MPS 102162
2004 04 21.27721 12 13 40.37 +04 44 33.0 20.5 V 691 – Steward Observatory, Kitt Peak-Spacewatch MPS 105073
2004 04 21.30520 12 13 39.23 +04 44 38.2 20.5 V 691 – Steward Observatory, Kitt Peak-Spacewatch MPS 105073
2004 04 21.33619 12 13 37.97 +04 44 44.7 20.4 V 691 – Steward Observatory, Kitt Peak-Spacewatch MPS 105073
2005 05 19.44916 21 03 34.02 -15 07 57.1 18.9 R G96 – Mt. Lemmon Survey MPS 135279
2005 05 19.45301 21 03 34.18 -15 07 56.3 19.7 R G96 – Mt. Lemmon Survey MPS 135279
2005 05 19.45686 21 03 34.35 -15 07 55.6 20.2 R G96 – Mt. Lemmon Survey MPS 135279
2005 05 19.46078 21 03 34.52 -15 07 55.1 20.5 R G96 – Mt. Lemmon Survey MPS 135279
2005 07 03.40229 21 12 11.84 -15 20 47.2 19.8 V G96 – Mt. Lemmon Survey MPS 137858
2005 07 03.41029 21 12 11.59 -15 20 49.0 19.9 V G96 – Mt. Lemmon Survey MPS 137858
2005 07 03.41830 21 12 11.37 -15 20 50.9 19.7 V G96 – Mt. Lemmon Survey MPS 137858
2005 07 03.42631 21 12 11.16 -15 20 52.9 19.6 V G96 – Mt. Lemmon Survey MPS 137858
2005 07 18.38033 21 02 28.18 -16 31 13.5 19.2   644 – Palomar Mountain/NEAT MPS 138576
2005 07 18.40158 21 02 27.07 -16 31 20.5 19.2   644 – Palomar Mountain/NEAT MPS 138576
2005 07 18.42800 21 02 25.70 -16 31 29.0 19.6   644 – Palomar Mountain/NEAT MPS 138576
2006 10 21.45534 08 40 04.90 +16 22 37.5 21.4 V G96 – Mt. Lemmon Survey MPS 185036
2006 10 21.45990 08 40 05.30 +16 22 36.4 21.2 V G96 – Mt. Lemmon Survey MPS 185036
2006 10 21.46441 08 40 05.73 +16 22 34.8 21.2 V G96 – Mt. Lemmon Survey MPS 185036
2006 10 21.46893 08 40 06.13 +16 22 33.6 21.8 V G96 – Mt. Lemmon Survey MPS 185036
2006 11 21.47937 09 18 47.19 +14 04 19.0 20.6 V G96 – Mt. Lemmon Survey MPS 190038
2006 11 21.48967 09 18 47.73 +14 04 17.0 20.5 V G96 – Mt. Lemmon Survey MPS 190038
2006 11 21.49997 09 18 48.24 +14 04 15.0 20.4 V G96 – Mt. Lemmon Survey MPS 190038
2006 11 21.51029 09 18 48.78 +14 04 13.0 20.7 V G96 – Mt. Lemmon Survey MPS 190038
2006 11 23.46697 09 20 33.82 +13 58 09.5 20.8 V G96 – Mt. Lemmon Survey MPS 190038
2006 11 23.47367 09 20 34.15 +13 58 08.1 20.7 V G96 – Mt. Lemmon Survey MPS 190038
2006 11 23.48034 09 20 34.51 +13 58 07.3 20.5 V G96 – Mt. Lemmon Survey MPS 190038
2006 11 23.48705 09 20 34.83 +13 58 06.0 20.4 V G96 – Mt. Lemmon Survey MPS 190038
